Location: Honolulu
(21.3069°N, 157.8583°W)
Time: 08:20:30
(UTC-10:00)

Transit 4A - Pass Details

Date: 20 September 2025
Orbit: 869 x 972 km, 66.8° (Epoch: 12 December)

Event Time Altitude Azimuth Distance (km) Brightness Sun altitude
Rises 14:35:28 0° 229° (SW) 3,560 11.5 52.0°
Reaches altitude 10° 14:38:24 10° 241° (WSW) 2,601 11.1 51.4°
Maximum altitude 14:43:24 27° 297° (WNW) 1,665 10.0 50.4°
Drops below altitude 10° 14:48:19 10° 354° (N) 2,550 10.2 49.3°
Sets 14:51:11 0° 6° (N) 3,477 10.7 48.7°
